Regional Weather Roundup
Issued by NWS

Home | Current Version | Previous Version | Graphics & Text | Print | Product List | Glossary On
Versions: 1 2 3 4 5 6 7 8 9 10 11 12 13 14 15 16 17 18 19 20 21 22 23 24 25 26 27 28 29 30 31 32 33 34 35 36 37 38 39 40 41 42 43 44 45 46 47 48 49 50
000
ASUS43 KFSD 030210
RWRSD

WEATHER ROUNDUP FOR SOUTH DAKOTA
NATIONAL WEATHER SERVICE SIOUX FALLS SD
900 PM CDT MON MAY 02 2016

NOTE: "FAIR" INDICATES FEW OR NO CLOUDS BELOW 12,000 FEET WITH NO
SIGNIFICANT WEATHER AND/OR OBSTRUCTIONS TO VISIBILITY.


SDZ001>005-009-010-012>017-030300-
NORTHWEST AND NORTH CENTRAL SOUTH DAKOTA

CITY           SKY/WX    TMP DP  RH WIND       PRES   REMARKS
BUFFALO          N/A     57  34  41 NE9       29.96R
FAITH            N/A     46  41  82 S8        30.00R
MOBRIDGE       CLEAR     57  45  64 E12       29.97R
$$

SDZ012>016-024>037-041>051-057-063-072>074-030300-
SOUTHWEST AND SOUTH CENTRAL SOUTH DAKOTA

CITY           SKY/WX    TMP DP  RH WIND       PRES   REMARKS
RAPID CTY ARPT MOCLDY    55  40  56 N12       29.99R
PIERRE         MOCLDY    49  43  80 CALM      30.00R
CUSTER         CLOUDY    51  30  44 VRB7      30.06F
PHILIP         MOCLDY    49  44  83 CALM      30.01R
PINE RIDGE     CLOUDY    50  41  71 NE5       30.03R
WINNER         CLOUDY    54  46  74 S3        30.01S
$$

SDZ004>011-016>023-039-040-030300-
NORTHEAST SOUTH DAKOTA

CITY           SKY/WX    TMP DP  RH WIND       PRES   REMARKS
ABERDEEN       CLEAR     52  39  61 SE5       30.00S
WATERTOWN      CLEAR     56  36  47 W6        29.99R
BROOKINGS      CLEAR     56  35  45 S6        30.00R
SISSETON         N/A     57  36  45 NW6       29.98R
$$

SDZ017-020-022-023-036>040-048>070-030300-
SOUTHEAST SOUTH DAKOTA

CITY           SKY/WX    TMP DP  RH WIND       PRES   REMARKS
SIOUX FALLS    PTCLDY    56  38  50 SW3       30.01S
HURON          MOCLDY    52  45  77 NW3       30.00S
CHAMBERLAIN    CLOUDY    53  50  88 CALM      30.01R
MITCHELL       MOCLDY    53  47  79 SW5       30.01S
YANKTON        PTCLDY    57  36  44 SE5       30.00F
$$

ABBREVIATIONS USED IN REMARKS
   TC - TEMPERATURE IN CELSIUS
  WCI - WIND CHILL INDEX
   HX - HEAT INDEX
  VSB - VISIBILITY





USA.gov is the U.S. government's official web portal to all federal, state and local government web resources and services.